SCP
0 0 0 0 0 0 0 0 0 0 0 0 0 0 0 0 0 0 0 0 0 0 0 0 0 0 0 0 0 0 0 0 0 0 0 0 0 0 0 0 0 0 0
0 0 0 0 0 0 0 0 0 0 0 0 0 0 0 0 0 0 0 0 0 0 0 0 0 0 0 0 0 0 0 0 0 0 0 0 0 0 0 0 0 0 0
0 0 0 0 0 0 0 0 0 0 0 0 0 0 0 0 0 0 0 0 0 0 0 0 0 0 0 0 0 0 0 0 0 0 0 0 0 0 0 0 0 0 0
0 0 0 0 0 0 0 0 0 0 0 0 0 0 0 0 0 0 0 0 0 0 0 0 0 0 0 0 0 0 0 0 0 0 0 0 0 0 0 0 0 0 0
0 0 0 0 0 0 0 0 0 0 0 0 0 0 0 0 0 0 0 0 0 0 0 0 0 0 0 0 0 0 0 0 0 0 0 0 0 0 0 0 0 0 0
0 0 0 0 0 0 0 0 0 0 0 0 0 0 0 0 0 0 0 0 0 0 0 0 0 0 0 0 0 0 0 0 0 0 0 0 0 0 0 0 0 0 0
0 0 0 0 0 0 0 0 0 0 0 0 0 0 0 0 0 0 0 0 0 0 0 0 0 0 0 0 0 0 0 0 0 0 0 0 0 0 0 0 0 0 0
0 0 0 0 0 0 0 0 0 0 0 0 0 0 0 0 0 0 0 0 0 0 0 0 0 0 0 0 0 0 0 0 0 0 0 0 0 0 0 0 0 0 0
0 0 0 0 0 0 0 0 0 0 0 0 0 0 0 0 0 0 0 0 0 0 0 0 0 0 0 0 0 0 0 0 0 0 0 0 0 0 0 0 0 0 0
0 0 -0 -0 0 0 0 0 0 0 0 0 0 0 0 0 0 0 0 0 0 0 0 0 0 0 0 0 0 0 0 0 0 0 0 0 0 0 0 0 0 0 0
0 0 0 0 0 0 0 0 0 0 0 0 0 0 0 0 0 0 0 0 0 0 0 0 0 0 0 0 0 0 0 0 0 0 0 0 0 0 0 0 0 0 0
0 0 0 0 0 0 0 0 0 0 0 0 0 0 0 0 0 0 0 0 0 0 0 0 0 0 0 0 0 0 0 0 0 0 0 0 0 0 0 0 0 0 0
0 0 0 0 0 0 0 0 0 0 0 0 0 0 0 0 0 0 0 0 0 0 0 0 0 0 0 0 0 0 0 0 0 0 0 0 0 0 0 0 0 0 0
0 0 0 0 0 0 0 0 0 0 0 0 0 0 0 0 0 0 0 0 0 0 0 0 0 0 0 0 0 0 0 0 0 0 0 0 0 0 0 0 0 0 0
0 0 0 0 0 0 0 0 0 0 0 0 0 0 0 0 0 0 0 0 0 0 0 0 0 0 0 0 0 0 0 0 0 0 0 0 0 0 0 0 0 0 0
0 0 0 0 0 0 0 0 0 0 0 0 0 0 0 0 0 0 0 0 0 0 0 0 0 0 0 0 0 0 0 0 0 0 0 0 0 0 0 0 0 0 0
0 0 0 0 0 0 0 0 0 0 0 0 0 0 0 0 0 0 0 0 0 0 0 0 0 0 0 0 0 0 0 0 0 0 0 0 0 0 0 0 0 0 0
0 0 0 0 0 0 0 0 0 0 0 0 0 0 0 0 0 0 0 0 0 0 0 0 0 0 0 0 0 0 0 0 0 0 0 0 0 0 0 0 0 0 0
0 0 0 0 0 0 0 0 0 0 0 0 0 0 0 0 0 0 0 0 0 0 0 0 0 0 0 0 0 0 0 0 0 0 0 0 0 0 0 0 0 0 0
0 0 0 0 0 0 0 0 0 0 0 0 0 0 0 0 0 0 0 0 0 0 0 0 0 0 0 0 0 0 0 0 0 0 0 0 0 0 0 0 0 0 0
0 0 0 0 0 0 0 0 0 0 0 0 0 0 0 0 0 0 0 0 0 0 0 0 0 0 0 0 0 0 0 0 0 0 0 0 0 0 0 0 0 0 0
0 0 0 0 0 0 0 0 0 0 0 0 0 0 0 0 0 0 0 0 0 0 0 0 0 0 0 0 0 0 0 0 0 0 0 0 0 0 0 0 0 0 0
0 0 0 0 0 0 0 0 0 0 0 0 0 0 0 0 0 0 0 0 0 0 0 0 0 0 0 0 0 0 0 0 0 0 0 0 0 0 0 0 0 0 0
0 0 0 0 0 0 0 0 0 0 0 0 0 -0 0 0 0 0 0 0 0 0 0 0 0 0 0 0 0 0 0 0 0 0 0 0 0 0 0 0 0 0 0
0 0 0 0 0 0 0 0 0 0 0 0 0 -0 0 0 0 0 0 0 0 0 0 0 0 0 0 0 0 0 0 0 0 0 0 0 0 0 0 0 0 0 0
0 0 0 0 0 0 0 0 0 0 0 0 0 -0 -0 -0 0 0 0 0 0 0 0 0 0 0 0 0 0 0 0 0 0 0 0 0 0 0 0 0 0 0 0
Wind_Speed
3 2 3 3 3 4 4 5 6 6 6 7 7 7 8 9 9 10 11 10 12 12 11 12 13 10 9 8 8 8 9 9 12 8 4 4 5 6 4 4 5 5 5
3 3 3 4 4 4 5 5 5 6 6 6 6 7 7 8 8 10 11 11 12 12 12 12 13 9 12 9 9 10 9 9 10 12 6 4 6 5 4 4 4 3 4
4 4 4 5 5 5 6 6 6 5 5 5 5 6 6 6 7 8 9 10 11 11 11 11 11 10 11 9 9 9 8 7 8 9 8 4 4 2 3 3 3 3 3
4 4 5 5 5 6 6 6 6 6 6 5 5 5 6 6 6 7 7 8 9 9 9 10 10 10 11 10 9 9 7 8 7 8 7 5 4 2 2 3 3 3 3
4 4 5 5 5 6 6 6 6 6 6 5 5 5 5 4 4 5 6 7 8 9 8 9 9 10 11 10 8 7 8 8 7 7 7 5 4 3 4 3 4 3 3
4 5 5 6 6 6 7 7 6 6 6 5 5 5 5 4 6 6 6 6 7 8 8 7 7 8 10 11 12 11 10 9 9 8 7 7 6 5 4 3 3 3 4
4 5 6 6 6 6 7 7 7 7 6 6 5 5 5 6 7 7 7 6 6 6 7 6 5 5 7 7 8 10 11 12 12 10 9 9 7 6 5 5 5 5 5
4 5 6 6 7 7 6 6 7 6 6 6 6 6 6 6 8 7 7 6 6 6 6 6 6 6 5 6 6 7 7 7 9 9 9 8 6 5 6 7 6 4 2
4 6 6 7 7 7 6 7 6 6 6 5 5 6 6 7 8 8 7 4 5 5 5 5 5 6 6 6 6 6 6 5 4 5 5 5 5 5 5 3 3 3 3
6 7 7 6 6 7 7 6 5 5 5 5 5 5 5 7 8 9 7 4 4 5 4 4 4 6 6 6 6 6 7 6 3 1 1 2 2 3 5 5 5 4 3
7 7 6 6 6 6 6 6 5 5 5 5 5 5 4 5 7 9 7 4 4 4 4 4 3 5 6 7 7 6 7 5 3 3 3 2 2 2 2 3 3 4 4
7 7 7 7 6 6 6 6 5 5 5 5 5 5 4 4 5 7 7 6 5 4 5 4 4 5 7 8 7 6 6 5 3 3 3 3 3 3 2 2 2 2 1
6 6 6 7 6 5 5 6 5 4 4 4 5 5 6 4 4 7 7 7 7 5 4 6 7 7 7 6 5 6 4 3 3 4 5 4 3 3 2 1 1 2 3
6 6 6 6 6 5 4 4 4 4 4 4 5 5 6 5 5 5 4 4 5 4 4 5 6 6 5 4 3 3 3 3 4 4 4 3 2 2 3 2 2 2 2
5 5 5 5 5 5 4 4 5 4 4 4 4 4 5 6 7 9 6 5 4 4 4 4 3 3 3 3 3 2 2 2 3 3 3 3 3 3 3 3 3 3 3
4 5 4 4 4 4 5 5 7 6 8 8 8 7 6 8 11 11 9 8 7 6 3 3 3 3 3 3 3 3 3 3 3 3 3 4 4 4 3 3 3 3 4
4 4 4 4 4 4 4 5 6 7 8 9 10 10 9 11 11 10 9 8 7 5 2 3 4 4 4 4 3 3 4 3 3 3 3 3 3 3 3 4 4 4 3
4 4 4 4 4 4 4 4 4 5 6 6 8 11 12 12 11 10 9 7 5 4 2 3 3 4 4 4 4 4 3 3 2 2 3 3 3 3 3 4 4 5 4
4 3 3 3 3 3 4 4 4 4 5 5 6 7 9 10 9 10 9 4 3 4 4 4 4 4 4 4 4 4 4 3 3 2 2 3 3 3 3 4 4 5 5
3 5 4 3 3 3 3 3 3 4 4 5 5 6 6 6 5 6 5 4 3 4 4 4 4 4 4 4 4 4 4 4 3 3 3 3 3 2 3 4 4 5 4
3 4 4 3 3 3 3 3 3 3 4 4 4 6 8 4 4 5 4 4 4 4 5 4 4 4 4 4 4 4 4 4 4 3 3 3 2 2 2 2 3 3 4
3 3 3 3 3 3 3 3 3 3 4 5 5 6 8 4 4 4 4 4 4 4 4 4 4 4 4 4 4 4 4 4 4 4 4 3 3 2 1 1 1 2 3
2 3 3 3 3 3 3 3 3 3 4 4 4 5 4 4 4 4 5 5 5 5 4 4 4 5 5 4 4 4 4 4 4 4 4 3 2 2 1 1 2 2 3
2 3 3 3 3 3 3 3 3 3 3 4 4 4 4 4 4 5 5 5 5 5 4 4 4 6 7 6 5 4 4 5 5 4 4 3 3 2 1 1 2 2 3
2 3 3 3 3 3 3 3 3 3 4 4 4 4 4 4 4 5 5 4 5 5 6 5 4 5 7 8 8 6 7 8 6 4 3 2 3 2 2 2 1 2 2
3 3 3 3 3 3 3 3 4 4 4 4 4 4 4 4 5 5 5 4 5 5 6 5 6 7 8 7 8 9 9 9 7 5 3 2 2 2 1 1 2 2 3
Wind_Direction
343 327 324 313 299 286 274 268 264 261 252 246 242 238 236 234 231 230 232 230 231 234 231 233 237 234 237 236 234 235 238 241 259 263 232 222 215 224 227 223 226 225 230
352 355 349 339 334 323 307 298 291 279 267 257 251 246 243 240 236 233 235 232 233 235 234 234 238 236 238 239 237 237 239 235 248 263 255 226 223 222 219 217 221 222 227
9 8 2 354 346 333 323 319 314 302 291 279 266 258 254 248 243 239 238 238 237 237 237 237 240 236 240 240 238 240 240 237 239 251 257 236 224 207 215 223 223 226 230
12 11 3 351 343 334 330 329 325 318 308 296 280 268 263 258 252 248 245 245 244 243 240 239 240 236 240 240 239 241 240 240 240 247 255 246 228 202 190 219 235 224 229
9 6 353 343 341 340 339 337 332 327 320 312 304 295 286 273 269 267 259 255 253 253 251 247 244 242 241 239 239 239 236 241 242 245 251 249 235 205 216 205 224 229 232
6 355 348 345 343 342 338 335 333 331 327 323 316 307 300 294 300 288 274 263 258 256 259 258 254 246 245 241 239 237 233 238 241 241 244 243 241 224 214 201 205 209 240
3 352 347 342 338 336 334 334 333 329 327 324 316 312 304 305 312 305 289 275 269 263 263 264 263 258 248 249 246 244 244 241 237 239 245 243 237 217 201 208 207 212 224
358 350 343 338 333 331 332 331 328 324 323 319 319 317 311 314 319 314 305 280 276 275 272 267 266 268 256 249 253 253 253 250 243 241 247 249 240 219 205 209 206 202 194
353 342 335 331 327 325 324 322 322 323 321 320 319 318 314 316 325 322 316 291 284 284 283 276 270 270 263 252 256 260 265 269 265 232 240 248 237 218 194 177 180 180 213
339 329 324 324 320 316 313 312 315 316 313 315 317 318 314 314 326 327 317 293 292 297 299 290 272 268 269 250 249 251 256 262 247 254 254 261 250 227 206 207 196 196 195
330 325 325 325 317 310 308 309 311 314 313 315 315 316 315 312 320 324 318 299 291 293 293 296 294 284 278 266 255 251 249 251 243 232 235 237 233 235 230 225 220 207 202
332 330 328 326 322 320 317 314 313 311 310 314 315 314 313 313 315 318 316 305 302 291 290 293 291 288 287 284 274 257 248 245 238 232 236 241 235 232 227 212 214 222 226
333 330 327 327 327 325 321 317 318 319 314 316 318 317 320 323 318 320 319 314 309 300 290 290 293 293 293 289 274 259 248 234 224 233 240 244 235 215 179 146 110 93 65
329 329 331 331 332 332 326 321 318 317 314 315 316 315 317 321 325 329 321 316 313 308 305 306 303 300 297 293 285 271 251 235 229 235 238 235 205 188 187 180 174 156 126
334 334 333 332 331 330 330 326 319 313 315 313 310 309 313 314 324 326 323 316 311 305 313 313 310 312 311 309 306 298 280 256 247 242 230 224 213 204 202 188 177 170 177
341 339 335 331 330 330 328 325 332 332 338 336 334 328 318 320 325 327 324 323 325 324 320 303 300 295 291 291 291 295 295 284 274 257 238 227 220 211 201 188 182 186 186
335 330 327 328 329 331 331 329 325 331 339 345 346 342 337 334 335 335 335 339 346 353 342 322 314 306 300 297 294 294 294 293 285 268 257 242 224 211 200 194 192 189 186
331 323 320 321 323 323 323 321 320 322 325 325 337 345 346 347 349 352 352 356 353 4 350 329 319 318 316 312 310 308 305 303 294 281 271 260 237 217 208 201 197 191 184
329 326 323 320 318 317 318 318 318 317 315 316 324 336 346 346 354 6 13 13 350 342 341 334 327 323 321 319 315 312 307 300 298 291 283 272 255 227 216 208 199 187 182
326 327 326 320 321 322 319 317 318 318 317 319 324 330 338 348 352 353 2 356 347 333 330 328 325 324 322 322 321 320 318 314 311 303 293 285 274 246 223 209 200 192 191
322 323 326 326 321 316 315 315 314 314 313 314 317 330 342 341 337 335 338 341 338 332 328 325 323 323 322 322 321 320 318 314 313 307 301 296 288 269 243 214 200 191 179
319 318 320 316 314 315 313 313 315 315 315 316 318 328 341 343 335 332 329 329 327 322 319 316 315 317 317 318 315 313 310 309 309 311 306 301 298 285 255 206 182 169 163
324 322 320 318 316 317 317 317 317 316 314 315 318 322 329 331 327 325 323 323 324 324 323 320 318 320 322 318 313 304 298 298 300 298 298 298 294 285 266 223 186 168 164
324 321 319 318 319 318 315 314 314 314 313 314 315 315 318 319 317 317 317 317 318 317 318 318 316 316 319 319 313 308 301 301 302 293 286 281 280 275 258 228 200 176 166
323 319 314 311 312 311 312 312 312 312 311 311 311 312 314 314 313 313 313 314 316 316 318 317 315 316 316 315 311 307 307 308 305 298 290 275 268 259 237 214 199 176 165
315 310 305 303 303 304 305 306 307 309 307 306 305 306 306 307 308 308 309 312 315 315 314 314 313 313 312 311 308 309 307 304 303 300 293 276 261 248 222 204 185 179 168